Flag for Grenada Weather past 2 weeks in Saint George's, Grenada

Now
79 °F

Passing clouds.


Feels Like: 82 °F
Forecast: 76 / 80 °F
Wind: 21 mph from East

Location: Point Salines Airport

Current Time: Jul 4, 2015 at 7:04:04 AM

Latest Report: Jul 4, 2015 at 6:00 AM


Visibility: N/A

Pressure: 29.92 "Hg

Humidity: 89%

Dew point: 75 °F

Location of Saint George'sLocation

Historic Weather in Saint George's — Graph

°F

Saint George's temperature yesterday

Maximum temperature yesterday: 84 °F (at 10:00 AM)
Minimum temperature yesterday: 77 °F (at 5:00 AM)
Average temperature yesterday: 80 °F

Past Weeks' High & Low Weather Summary

 TemperatureHumidityPressure
High86 °F (Jun 20, 10:00 AM)100% (Jun 30, 12:00 PM)30.07 "Hg (Jun 30, 12:00 PM)
Low75 °F (Jun 30, 3:00 PM)66% (Jun 20, 1:00 PM)29.92 "Hg (Jun 19, 4:00 PM)
Average81 °F84%30.00 "Hg
* Reported Jun 19 6:00 AM — Jul 4 6:00 AM, Saint George's, Weather by CustomWeather, © 2015

Note: Actual official high and low records may vary slightly from our data, if they occured in-between our weather recording intervals... More about our weather records

Advertising

Saint George's weather history for previous 24 hours

 ConditionsComfort  
Time TempWeatherWind HumidityBarometerVisibility
6:00 AM
Sat, Jul 4
79 °FPassing clouds.21 mph89%29.92 "HgN/A
5:00 AM79 °FPassing clouds.21 mph84%29.95 "HgN/A
4:00 AM79 °FPassing clouds.7 mph89%29.92 "HgN/A
12:00 AM81 °FPassing clouds.14 mph84%29.95 "HgN/A
11:00 PM
Fri, Jul 3
81 °FPassing clouds.12 mph84%29.98 "HgN/A
10:00 PM81 °FPassing clouds.16 mph84%29.98 "Hg6 mi
9:00 PM79 °FPassing clouds.13 mph94%29.95 "Hg6 mi
8:00 PM77 °FSprinkles. Passing clouds.14 mph94%29.95 "Hg6 mi
7:00 PM79 °FPassing clouds.18 mph89%29.92 "Hg6 mi
6:00 PM81 °FScattered clouds.13 mph89%29.92 "HgN/A
5:00 PM82 °FSprinkles. Scattered clouds.14 mph89%29.92 "Hg6 mi
4:00 PM81 °FSprinkles. Broken clouds.12 mph94%29.92 "HgN/A
3:00 PM81 °FSprinkles. Scattered clouds.14 mph94%29.92 "HgN/A
2:00 PM81 °FScattered clouds.14 mph89%29.95 "HgN/A
1:28 PMN/ASprinkles.18 mphN/A29.95 "HgN/A
1:00 PM84 °FScattered clouds.20 mph84%29.95 "HgN/A
12:00 PM82 °FScattered clouds.21 mph89%29.98 "HgN/A
11:00 AM82 °FScattered clouds.20 mph89%29.98 "HgN/A
10:00 AM84 °FScattered showers. Partly sunny.17 mph84%29.98 "Hg3 mi
9:00 AM82 °FSprinkles. Scattered clouds.16 mph84%29.98 "HgN/A
8:00 AM82 °FPassing clouds.12 mph89%29.98 "HgN/A
7:00 AM77 °FPassing clouds.9 mph94%29.98 "HgN/A
Weather by CustomWeather, © 2015

See weather overviewHow to use our weather pages